Hourly Weather Bolshie Prudy

Today, 20 June, Sunday

Time Temperature Precipitation Wind Pressure Humidity
00:00 +19°C° 0 mm 1 mps 751 mmHg 89%
01:00 +18°C° 0 mm 1 mps 751 mmHg 90%
02:00 +18°C° 0 mm 1 mps 751 mmHg 90%
03:00 +18°C° 0 mm 1 mps 751 mmHg 89%
04:00 +19°C° 0 mm 1 mps 751 mmHg 89%
05:00 +19°C° 0 mm 1 mps 751 mmHg 88%
06:00 +21°C° 0 mm 1 mps 751 mmHg 83%
07:00 +21°C° 0 mm 2 mps 751 mmHg 78%
08:00 +24°C° 0 mm 2 mps 751 mmHg 73%
09:00 +25°C° 0 mm 2 mps 751 mmHg 68%
10:00 +26°C° 0 mm 3 mps 751 mmHg 63%
11:00 +26°C° 0 mm 3 mps 751 mmHg 59%
12:00 +27°C° 0 mm 3 mps 750 mmHg 58%
13:00 +27°C° 0 mm 3 mps 750 mmHg 57%
14:00 +27°C° 0 mm 3 mps 750 mmHg 55%
15:00 +27°C° 0 mm 2 mps 750 mmHg 60%
16:00 +27°C° 0 mm 2 mps 750 mmHg 64%
17:00 +27°C° 0 mm 2 mps 749 mmHg 68%
18:00 +25°C° 0 mm 2 mps 749 mmHg 73%
19:00 +23°C° 0 mm 2 mps 749 mmHg 78%
20:00 +20°C° 0 mm 2 mps 749 mmHg 84%
21:00 +20°C° 0 mm 2 mps 749 mmHg 85%
22:00 +19°C° 0 mm 2 mps 749 mmHg 87%
23:00 +18°C° 0 mm 2 mps 749 mmHg 88%

Tomorrow, 21 June, Monday

Time Temperature Precipitation Wind Pressure Humidity
00:00 +18°C° 0 mm 2 mps 749 mmHg 89%
01:00 +18°C° 0 mm 2 mps 749 mmHg 89%
02:00 +17°C° 0 mm 2 mps 749 mmHg 89%
03:00 +18°C° 0 mm 2 mps 749 mmHg 88%
04:00 +18°C° 0 mm 2 mps 749 mmHg 88%
05:00 +19°C° 0 mm 2 mps 749 mmHg 88%
06:00 +20°C° 0 mm 2 mps 749 mmHg 83%
07:00 +22°C° 0 mm 3 mps 749 mmHg 78%
08:00 +24°C° 0 mm 3 mps 750 mmHg 74%
09:00 +25°C° 0 mm 3 mps 749 mmHg 70%
10:00 +26°C° 0 mm 3 mps 749 mmHg 66%
11:00 +27°C° 0 mm 4 mps 749 mmHg 62%
12:00 +28°C° 0 mm 4 mps 749 mmHg 62%
13:00 +28°C° 0 mm 4 mps 749 mmHg 62%
14:00 +29°C° 0 mm 4 mps 749 mmHg 61%
15:00 +28°C° 0 mm 3 mps 749 mmHg 65%
16:00 +28°C° 0 mm 3 mps 748 mmHg 69%
17:00 +28°C° 0 mm 3 mps 748 mmHg 73%
18:00 +26°C° 0 mm 3 mps 748 mmHg 78%
19:00 +25°C° 0 mm 3 mps 748 mmHg 82%
20:00 +22°C° 0 mm 3 mps 748 mmHg 87%
21:00 +22°C° 0 mm 3 mps 748 mmHg 88%
22:00 +21°C° 0 mm 2 mps 748 mmHg 89%
23:00 +20°C° 0 mm 2 mps 748 mmHg 91%

Day after tomorrow, 22 June, Tuesday

Time Temperature Precipitation Wind Pressure Humidity
00:00 +20°C° 0 mm 2 mps 749 mmHg 91%
01:00 +20°C° 0 mm 2 mps 749 mmHg 92%
02:00 +20°C° 0 mm 2 mps 749 mmHg 92%
03:00 +20°C° 0 mm 2 mps 749 mmHg 91%
04:00 +20°C° 0 mm 2 mps 749 mmHg 91%
05:00 +21°C° 0 mm 2 mps 749 mmHg 90%
06:00 +22°C° 0 mm 3 mps 749 mmHg 84%
07:00 +25°C° 0 mm 3 mps 749 mmHg 78%
08:00 +26°C° 0 mm 4 mps 749 mmHg 73%
09:00 +27°C° 0 mm 4 mps 749 mmHg 69%
10:00 +28°C° 0 mm 4 mps 749 mmHg 65%
11:00 +29°C° 0 mm 4 mps 749 mmHg 61%
12:00 +30°C° 0 mm 4 mps 749 mmHg 60%
13:00 +30°C° 0 mm 4 mps 749 mmHg 58%
14:00 +32°C° 0 mm 4 mps 749 mmHg 57%
15:00 +30°C° 0 mm 4 mps 749 mmHg 61%
16:00 +30°C° 0 mm 3 mps 749 mmHg 65%
17:00 +29°C° 0 mm 3 mps 749 mmHg 70%
18:00 +28°C° 0 mm 3 mps 749 mmHg 75%
19:00 +26°C° 0 mm 3 mps 749 mmHg 80%
20:00 +24°C° 0 mm 2 mps 749 mmHg 85%
21:00 +23°C° 0 mm 2 mps 749 mmHg 86%
22:00 +23°C° 0 mm 2 mps 749 mmHg 87%
23:00 +21°C° 0 mm 2 mps 749 mmHg 88%

23 June, Wednesday

Time Temperature Precipitation Wind Pressure Humidity
00:00 +21°C° 0 mm 2 mps 749 mmHg 88%
01:00 +20°C° 0 mm 2 mps 749 mmHg 88%
02:00 +20°C° 0 mm 2 mps 749 mmHg 88%
03:00 +20°C° 0 mm 2 mps 749 mmHg 87%
04:00 +21°C° 0 mm 2 mps 749 mmHg 86%
05:00 +21°C° 0 mm 2 mps 749 mmHg 85%
06:00 +24°C° 0 mm 2 mps 749 mmHg 79%
07:00 +25°C° 0 mm 3 mps 749 mmHg 74%
08:00 +27°C° 0 mm 3 mps 749 mmHg 69%
09:00 +28°C° 0 mm 3 mps 749 mmHg 65%
10:00 +29°C° 0 mm 3 mps 749 mmHg 60%
11:00 +30°C° 0 mm 3 mps 749 mmHg 56%
12:00 +31°C° 0 mm 3 mps 749 mmHg 54%
13:00 +31°C° 0 mm 3 mps 749 mmHg 52%
14:00 +31°C° 0 mm 3 mps 749 mmHg 51%
15:00 +31°C° 0 mm 3 mps 749 mmHg 55%
16:00 +31°C° 0 mm 2 mps 749 mmHg 60%
17:00 +30°C° 0 mm 2 mps 749 mmHg 65%
18:00 +28°C° 0 mm 2 mps 749 mmHg 70%
19:00 +27°C° 0 mm 2 mps 749 mmHg 75%
20:00 +25°C° 0 mm 2 mps 749 mmHg 80%
21:00 +24°C° 0 mm 1 mps 749 mmHg 82%
22:00 +24°C° 0 mm 1 mps 749 mmHg 84%
23:00 +23°C° 0 mm 1 mps 749 mmHg 85%

24 June, Thursday

Time Temperature Precipitation Wind Pressure Humidity
00:00 +23°C° 0 mm 1 mps 749 mmHg 86%
01:00 +22°C° 0 mm 1 mps 749 mmHg 87%
02:00 +22°C° 0 mm 1 mps 749 mmHg 88%
03:00 +23°C° 0 mm 1 mps 749 mmHg 87%
04:00 +23°C° 0 mm 1 mps 749 mmHg 87%
05:00 +24°C° 0 mm 1 mps 749 mmHg 86%
06:00 +25°C° 0 mm 1 mps 749 mmHg 82%
07:00 +27°C° 0 mm 1 mps 749 mmHg 77%
08:00 +28°C° 0 mm 1 mps 749 mmHg 72%
09:00 +29°C° 0 mm 1 mps 749 mmHg 68%
10:00 +30°C° 0 mm 1 mps 749 mmHg 63%
11:00 +31°C° 0 mm 1 mps 749 mmHg 58%
12:00 +31°C° 0 mm 1 mps 749 mmHg 55%
13:00 +32°C° 0 mm 1 mps 749 mmHg 53%
14:00 +32°C° 0 mm 1 mps 749 mmHg 50%
15:00 +30°C° 0 mm 0 mps 749 mmHg 54%
16:00 +30°C° 0 mm 0 mps 749 mmHg 57%
17:00 +30°C° 0 mm 0 mps 749 mmHg 61%
18:00 +28°C° 0 mm 0 mps 748 mmHg 64%
19:00 +28°C° 0 mm 1 mps 748 mmHg 67%
20:00 +26°C° 0 mm 1 mps 748 mmHg 70%
21:00 +26°C° 0 mm 1 mps 748 mmHg 72%
22:00 +23°C° 0 mm 0 mps 748 mmHg 73%
23:00 +22°C° 0 mm 0 mps 748 mmHg 75%

25 June, Friday

Time Temperature Precipitation Wind Pressure Humidity
00:00 +22°C° 0 mm 0 mps 748 mmHg 77%
01:00 +21°C° 0 mm 0 mps 748 mmHg 79%
02:00 +21°C° 0 mm 0 mps 748 mmHg 80%
03:00 +22°C° 0 mm 0 mps 748 mmHg 80%
04:00 +24°C° 0 mm 1 mps 748 mmHg 80%
05:00 +25°C° 0 mm 1 mps 748 mmHg 80%
06:00 +26°C° 0 mm 1 mps 748 mmHg 76%
07:00 +27°C° 0 mm 1 mps 748 mmHg 72%
08:00 +29°C° 0 mm 1 mps 748 mmHg 68%
09:00 +30°C° 0 mm 1 mps 748 mmHg 64%
10:00 +31°C° 0 mm 1 mps 748 mmHg 61%
11:00 +31°C° 0 mm 1 mps 748 mmHg 57%
12:00 +32°C° 0 mm 1 mps 748 mmHg 55%
13:00 +32°C° 0 mm 1 mps 748 mmHg 52%
14:00 +33°C° 0 mm 1 mps 748 mmHg 50%
15:00 +32°C° 0 mm 1 mps 747 mmHg 55%
16:00 +32°C° 0 mm 2 mps 747 mmHg 60%
17:00 +31°C° 0 mm 2 mps 746 mmHg 65%
18:00 +29°C° 0.1 mm 2 mps 746 mmHg 69%
19:00 +28°C° 0.1 mm 2 mps 746 mmHg 73%
20:00 +26°C° 0.1 mm 1 mps 747 mmHg 77%
21:00 +24°C° 0.4 mm 1 mps 747 mmHg 82%
22:00 +23°C° 0.4 mm 1 mps 747 mmHg 87%
23:00 +21°C° 0.4 mm 1 mps 747 mmHg 92%
Show more